Kezdőlap
METAR-TAF:

METAR-TAF

Repülőterek :

Ermelo, Dél-afrikai Köztársaság

földrajzi szélesség: 26-29-44S, földrajzi hosszúság: 29-58-47E, magasság: 1737 m

Jelenlegi meteorológiai megfigyelések

A jelentés 13 órával és 53 perccel ezelõtt készült, 09:40 UTC
Északkeleti szél 11 kt
Hőmérséklet 18°C
Páratartalom 52%
Légköri nyomás 1026 hPa
Látótávolság 10 km, vagy több
Szórványos felhőzet 1500 lábon

METAR: FAEO 200940Z 05011KT 9999 SCT015 18/08 Q1026

Idő: 01:33 (23:33 UTC)


TAF: hiányzik

Meteorológiai megfigyelések és előrejelzések több, mint 4000 repülőtéren (METAR és TAF jelentéseket).

A térképen piros és sárga pontok jelzik az elérhető meteorológiai állomásokat.

Mozgassa az egeret a pont fölött, hogy megjelenjen az állomás neve.

Azután kattintson az időjárási megfigyelések és előrejelzések megtekintéséhez.

A térkép megváltoztatása: kattintson a fekete keresztel jelölt zöld gombra ráközelítéshez, a vonallal jelölt zöld gombra távolításhoz, vagy a zöld nyilakra a szomszédos térképek eléréséhez.


METAR-TAF: